Weather History for Wright-Patt AFB, OH

Change the Weather History Date:

Saturday, June 7, 2014

  Actual Average Record
Temperature  
Mean Temperature 68 °F -  
Max Temperature 82 °F 75 °F 92 °F (2011)
Min Temperature 55 °F 56 °F 41 °F (1998)
Cooling Degree Days 4    
Growing Degree Days 18 (Base 50)    
Moisture  
Dew Point 52 °F    
Average Humidity 57    
Maximum Humidity 87    
Minimum Humidity 34    
Precipitation  
Precipitation 0.00 in - - ()
Sea Level Pressure  
Sea Level Pressure 29.99 in    
Wind  
Wind Speed 3 mph (ESE)    
Max Wind Speed 14 mph    
Max Gust Speed -    
Visibility 10 miles    
Events      
Averages and records for this station are not official NWS values.
T = Trace of Precipitation, MM = Missing Value Source: NWS Daily Summary

Daily Weather History Graph

Daily Weather History Graph

Search for Another Location

Airport:

Trip Planner

Search our weather history database for the weather conditions in past years. The results will help you decide how hot, cold, wet, or windy it might be!

Date:

Astronomy

Jun. 07, 2014 Rise Set
Actual Time 6:08 AM EDT 9:02 PM EDT
Civil Twilight 5:35 AM EDT 9:34 PM EDT
Nautical Twilight 4:54 AM EDT 10:15 PM EDT
Astronomical Twilight 4:07 AM EDT 11:03 PM EDT
Moon 3:19 PM EDT (6/7) 2:28 AM EDT (6/7)
Length of Visible Light 15h 59m
Length of Day
14h 54m
Waxing Gibbous, 67% of the Moon is Illuminated
Jun 7
Waxing Gibbous
Jun 13
Full
Jun 19
Last Quarter
Jun 27
New
Jul 5
First Quarter

Hourly Weather History & Observations

Time (EDT) Temp. Dew Point Humidity Pressure Visibility Wind Dir Wind Speed Gust Speed Precip Events Conditions
12:58 AM 61.0 °F 53.1 °F 75% 30.03 in 10.0 mi Calm Calm - N/A   Clear
1:58 AM 60.1 °F 53.1 °F 78% 30.03 in 10.0 mi North 2.3 mph - N/A   Clear
2:58 AM 58.5 °F 53.1 °F 82% 30.02 in 10.0 mi NNE 3.5 mph - N/A   Clear
3:58 AM 58.8 °F 53.8 °F 83% 30.00 in 10.0 mi NE 1.2 mph - N/A   Clear
4:58 AM 57.2 °F 53.2 °F 87% 30.01 in 10.0 mi Variable 1.2 mph - N/A   Clear
5:58 AM 55.8 °F 51.4 °F 85% 30.02 in 10.0 mi Calm Calm - N/A   Clear
6:58 AM 55.8 °F 52.0 °F 87% 30.05 in 10.0 mi NE 2.3 mph - N/A   Clear
7:58 AM 61.7 °F 53.2 °F 74% 30.06 in 10.0 mi NNE 2.3 mph - N/A   Clear
8:58 AM 67.6 °F 55.6 °F 65% 30.07 in 10.0 mi Variable 1.2 mph - N/A   Clear
9:00 AM 68.0 °F 53.6 °F 60% 30.07 in 10.0 mi Calm Calm - N/A   Clear
9:58 AM 72.9 °F 50.4 °F 45% 30.07 in 10.0 mi Variable 4.6 mph - N/A   Clear
10:58 AM 75.2 °F 50.4 °F 42% 30.05 in 10.0 mi SSW 5.8 mph - N/A   Clear
11:58 AM 77.0 °F 51.1 °F 40% 30.04 in 10.0 mi ENE 5.8 mph - 0.00 in   Clear
1:58 PM 80.2 °F 51.6 °F 37% 30.00 in 10.0 mi Variable 3.5 mph - N/A   Clear
2:58 PM 80.2 °F 52.0 °F 37% 29.97 in 10.0 mi South 13.8 mph - N/A   Clear
3:58 PM 81.3 °F 52.2 °F 36% 29.96 in 10.0 mi ESE 9.2 mph - N/A   Clear
4:58 PM 82.2 °F 50.9 °F 34% 29.94 in 10.0 mi SSE 9.2 mph - N/A   Clear
5:58 PM 82.0 °F 51.3 °F 34% 29.93 in 10.0 mi SE 4.6 mph - 0.00 in   Clear
6:58 PM 79.0 °F 50.7 °F 37% 29.91 in 10.0 mi SSE 6.9 mph - N/A   Clear
7:58 PM 77.5 °F 53.1 °F 42% 29.91 in 10.0 mi South 9.2 mph - N/A   Clear
8:58 PM 74.8 °F 51.8 °F 44% 29.89 in 10.0 mi SSE 5.8 mph - N/A   Clear
9:58 PM 72.9 °F 54.0 °F 51% 29.88 in 10.0 mi ESE 6.9 mph - 0.00 in   Mostly Cloudy
10:58 PM 71.4 °F 54.0 °F 54% 29.88 in 10.0 mi ESE 5.8 mph - N/A   Scattered Clouds
11:58 PM 70.5 °F 53.8 °F 55% 29.86 in 10.0 mi ESE 5.8 mph - N/A   Scattered Clouds